Location: Mapua
(41.2500°S, 173.1000°E)
Time: 18:18:20
(UTC+13:00)

Hubble Space Telescope - Visible Passes

Search period start: 18 December 2017 00:00
Search period end: 28 December 2017 00:00
Orbit: 537 x 541 km, 28.5° (Epoch: 17 December)

Date Brightness Start Highest point End Pass type
(mag) Time Alt. Az. Time Alt. Az. Time Alt. Az.
18 Dec 2.8 04:57:57 10° NNW 05:00:07 14° N 05:02:18 10° NE visible
19 Dec 2.7 04:48:10 12° NNW 04:49:46 14° N 04:51:59 10° NNE visible
20 Dec 2.7 04:38:31 13° NNW 04:39:23 14° N 04:41:35 10° NNE visible
21 Dec 2.7 04:29:01 13° N 04:29:02 13° N 04:31:06 10° NNE visible
22 Dec 2.9 04:19:39 12° N 04:19:39 12° N 04:20:32 10° NNE visible
